Regional Weather Roundup
Issued by NWS Kansas City/Pleasant Hill, MO

Home | Current Version | Previous Version | Graphics & Text | Print | Product List | Glossary Off
Versions: 1 2 3 4 5 6 7 8 9 10 11 12 13 14 15 16 17 18 19 20 21 22 23 24 25 26 27 28 29 30 31 32 33 34 35 36 37 38 39 40 41 42 43 44 45 46 47 48 49 50

963
ASUS43 KEAX 261610
RWREAX

WEATHER ROUNDUP FOR EASTERN KANSAS AND NORTHWEST MISSOURI
NATIONAL WEATHER SERVICE KANSAS CITY/PLEASANT HILL MO
1100 AM CDT FRI MAY 26 2017

KSZ040-057-103>105-MOZ028-029-037-043-261700-
...KANSAS CITY METROPOLITAN AREA...

CITY           SKY/WX    TMP DP  RH WIND       PRES   REMARKS
K.C. INTL      MOSUNNY   75  65  70 W5        29.75R
K.C. DOWNTOWN  SUNNY     76  63  64 CALM      29.72S
LEES SUMMIT    MOSUNNY   77  66  68 E5        29.74S
OLATHE - IXD   SUNNY     74  63  68 W5        29.74S
OLATHE - OJC   MOSUNNY   75  64  68 VRB3      29.74S
LAWRENCE       SUNNY     75  65  70 NW7       29.74R

$$

MOZ001>008-011>017-020>025-030>033-038>040-044>046-053-054-261700-
...NORTHERN AND CENTRAL MISSOURI...

CITY           SKY/WX    TMP DP  RH WIND       PRES   REMARKS
ST. JOSEPH     SUNNY     78  64  61 N6        29.74S
MOSBY          MOSUNNY   75  61  60 CALM      29.74S
WARRENSBURG    MOSUNNY   73  63  68 E3        29.73S
WHITEMAN AFB   CLOUDY    74  68  80 SW3       29.72F
CLINTON        PTSUNNY   77  66  69 SW6       29.73S
SEDALIA        PTSUNNY   77  68  73 E3        29.75S
WARSAW         NOT AVBL
CHILLICOTHE      N/A     76  65  68 VRB7      29.73F
KIRKSVILLE     PTSUNNY   74  65  73 SW8       29.74R

$$

MOZ041-047>049-056>058-063>065-088>090-097-261700-
...EASTERN AND SOUTHERN MISSOURI...

CITY           SKY/WX    TMP DP  RH WIND       PRES   REMARKS
ST. LOUIS INTL MOSUNNY   81  63  54 SW12      29.75R
SPIRIT OF STL  SUNNY     79  65  62 S9        29.73R
COLUMBIA       PTSUNNY   75  65  70 N7        29.74F
JEFFERSON CITY PTSUNNY   78  64  61 S5        29.73F
ROLLA          SUNNY     74  67  78 S8        29.74F
OSAGE BEACH    SUNNY     76  66  71 SW7       29.74F
SPRINGFIELD    SUNNY     76  64  66 S16       29.74R
BRANSON        PTSUNNY   75  63  64 SE15      29.77F
JOPLIN         MOSUNNY   81  68  64 SW15      29.72R
WEST PLAINS    PTSUNNY   73  63  70 S14       29.80S

$$

IAZ060-094-KSZ022-034>040-054-083-096-NEZ052-066-093-261700-
...KANSAS...SOUTHEAST NEBRASKA AND IOWA...

CITY           SKY/WX    TMP DP  RH WIND       PRES   REMARKS
TOPEKA         MOSUNNY   77  66  68 VRB5      29.74R
MANHATTAN      SUNNY     78  65  63 VRB7      29.75R
EMPORIA        SUNNY     74  65  73 NE6       29.74R
CHANUTE        SUNNY     79  64  60 MISG      29.71S
WICHITA        SUNNY     77  64  64 N14       29.74S
OMAHA          MOSUNNY   69  56  62 N17       29.77R
LINCOLN        SUNNY     72  51  47 N16       29.80R
FALLS CITY     SUNNY     76  63  64 NW13      29.74R
LAMONI         SUNNY     73  63  70 VRB7      29.74R
DES MOINES     CLOUDY    69  60  73 N8        29.73S

$$





USA.gov is the U.S. government's official web portal to all federal, state and local government web resources and services.